(184348) = 2005 HW7

Discovered at Palomar on 2005-04-30 by NEAT.

Orbit

Orbit type: Main Belt

Note: WebGL enabled browser required.

epoch2023-09-13.0
epoch JD2460200.5
perihelion date2022-11-02.75055
perihelion JD2459886.25055
argument of perihelion (°)129.18727
ascending node (°)98.42660
inclination (°)6.83059
eccentricity0.1248087
perihelion distance (AU)2.0128734
Tisserand w.r.t. Jupiter3.6
ΔV w.r.t. Earth (km/sec)9.0
semimajor axis (AU)2.2999240
mean anomaly (°)88.79902
mean daily motion (°/day)0.28257490
aphelion distance (AU)2.587
period (years)3.49
P-vector [x]-0.66868149
P-vector [y]-0.71359835
P-vector [z]-0.20890778
Q-vector [x]0.73418222
Q-vector [y]-0.58920654
Q-vector [z]-0.33736053
absolute magnitude17.32
phase slope0.15
uncertainty0
referenceMPO 778228
observations used422
oppositions17
arc length (days)9305
first opposition used1998
last opposition used2023
residual rms (arc-secs)0.74
perturbers coarse indicatorM-v
perturbers precise indicator003Ek
first observation date used1998-04-23.0
last observation date used2023-10-14.0
computer nameMPCLINUX
JD of orbit computation2456612.538984
perihelion JD uncertainty (days)4.8600E-05
argument of perihelion uncertainty (°)4.5167E-05
ascending node uncertainty (°)4.2848E-05
inclination uncertainty (°)4.1701E-06
eccentricity uncertainty 6.3838E-08
perihelion distance uncertainty (AU)1.4081E-07
Minimum Orbit Intersection Distances (in AU)
for orbit epoch: 2460200.5, reference: E2023-TP1
Mercury1.55854
Venus1.29124
Earth1.00938
Mars0.45667
Jupiter2.40702
Saturn6.51661
Uranus16.2575
Neptune27.2685

Observations

417 total observations over interval: 1998 04 23.26395 – 2023 10 14.265985
These data are available for download (format description).

Date (UT) J2000 RA J2000 Dec Magn Location Ref
1998 04 23.26395 14 26 03.40 -01 32 17.1 19.6   704 – Lincoln Laboratory ETS, New Mexico MPS 166116
1998 04 23.28288 14 26 02.36 -01 32 12.4 19.6   704 – Lincoln Laboratory ETS, New Mexico MPS 166116
1998 04 23.30166 14 26 01.27 -01 32 09.1 20.0   704 – Lincoln Laboratory ETS, New Mexico MPS 166116
1998 04 23.33934 14 25 58.68 -01 32 03.3 20.1   704 – Lincoln Laboratory ETS, New Mexico MPS 166116
2000 12 26.50924 09 11 09.38 +20 07 52.4 21.9 V 691 – Steward Observatory, Kitt Peak-Spacewatch MPS 166116
2000 12 26.53184 09 11 08.87 +20 08 00.5 22.1 V 691 – Steward Observatory, Kitt Peak-Spacewatch MPS 166116
2000 12 26.55427 09 11 08.40 +20 08 07.8 21.4 V 691 – Steward Observatory, Kitt Peak-Spacewatch MPS 166116
2003 11 24.26052 04 45 39.85 +16 40 31.3 21.4 V 691 – Steward Observatory, Kitt Peak-Spacewatch MPS 166116
2003 11 24.28869 04 45 37.99 +16 40 30.7 21.2 V 691 – Steward Observatory, Kitt Peak-Spacewatch MPS 166116
2003 11 24.31784 04 45 36.05 +16 40 30.3 21.6 V 691 – Steward Observatory, Kitt Peak-Spacewatch MPS 166116
2005 04 18.35171 14 48 08.86 -03 35 56.7 19.6 R 703 – Catalina Sky Survey MPS 166116
2005 04 18.36020 14 48 08.40 -03 35 54.5 19.1 R 703 – Catalina Sky Survey MPS 166116
2005 04 18.36870 14 48 07.90 -03 35 53.2 19.2 R 703 – Catalina Sky Survey MPS 166116
2005 04 18.37716 14 48 07.51 -03 35 50.3 18.8 R 703 – Catalina Sky Survey MPS 166116
2005 04 30.39132 14 37 07.38 -03 01 03.1 19.6   644 – Palomar Mountain/NEAT MPS 134059
2005 04 30.41150 14 37 06.17 -03 01 00.7 19.2   644 – Palomar Mountain/NEAT MPS 134059
2005 04 30.43138 14 37 04.96 -03 00 58.1 20.1   644 – Palomar Mountain/NEAT MPS 134059
2005 05 07.29991 14 30 29.77 -02 51 23.1 19.2 V 703 – Catalina Sky Survey MPS 134059
2005 05 07.30660 14 30 29.41 -02 51 21.6 20.3 V 703 – Catalina Sky Survey MPS 134059
2005 05 07.31330 14 30 29.05 -02 51 21.1 20.2 V 703 – Catalina Sky Survey MPS 134059
2005 05 07.31999 14 30 28.62 -02 51 21.1 19.4 V 703 – Catalina Sky Survey MPS 134059
2005 05 15.22316 14 23 26.67 -02 52 24.8 19.1   644 – Palomar Mountain/NEAT MPS 166116
2005 05 15.24549 14 23 25.52 -02 52 26.1 19.2   644 – Palomar Mountain/NEAT MPS 166116
2005 05 15.26999 14 23 24.22 -02 52 27.7 19.1   644 – Palomar Mountain/NEAT MPS 166116
2006 09 11.38024 01 48 15.45 -00 03 27.9 22.9   705 – Apache Point MPS 195523
2006 09 11.38108 01 48 15.42 -00 03 28.2 21.8 V 705 – Apache Point MPS 195523
2006 09 18.37432 01 44 21.52 -00 44 01.6 22.0   705 – Apache Point MPS 195523
2006 09 18.37514 01 44 21.49 -00 44 02.0 21.3 V 705 – Apache Point MPS 195523
2007 11 09.50738 09 02 36.67 +18 16 30.8 21.9 V G96 – Mt. Lemmon Survey MPS 224902
2007 11 09.51243 09 02 36.99 +18 16 29.5 22.1 V G96 – Mt. Lemmon Survey MPS 224902
2007 11 09.51749 09 02 37.32 +18 16 29.3 22.7 V G96 – Mt. Lemmon Survey MPS 224902
2007 11 09.52249 09 02 37.60 +18 16 29.2 22.3 V G96 – Mt. Lemmon Survey MPS 224902
2007 12 31.40721 09 23 29.16 +19 50 45.9 20.5 V 691 – Steward Observatory, Kitt Peak-Spacewatch MPS 232622
2007 12 31.42485 09 23 28.75 +19 50 52.2 21.1 V 691 – Steward Observatory, Kitt Peak-Spacewatch MPS 232622
2007 12 31.44249 09 23 28.33 +19 50 58.8 21.0 V 691 – Steward Observatory, Kitt Peak-Spacewatch MPS 232622
2008 01 14.35149 09 15 30.58 +21 28 29.5 20.0 V 691 – Steward Observatory, Kitt Peak-Spacewatch MPS 234261
2008 01 14.36970 09 15 29.68 +21 28 37.7 20.2 V 691 – Steward Observatory, Kitt Peak-Spacewatch MPS 234261
2008 01 14.38736 09 15 28.81 +21 28 46.3 20.0 V 691 – Steward Observatory, Kitt Peak-Spacewatch MPS 234261
2008 01 18.36403 09 12 10.64 +22 00 06.1 21.1 V 691 – Steward Observatory, Kitt Peak-Spacewatch MPS 234261
2008 01 18.38219 09 12 09.64 +22 00 14.3 20.2 V 691 – Steward Observatory, Kitt Peak-Spacewatch MPS 234261
2008 01 18.40059 09 12 08.64 +22 00 22.9 20.2 V 691 – Steward Observatory, Kitt Peak-Spacewatch MPS 234261
2008 02 03.19338 08 56 10.06 +24 04 25.2 19.7 V 703 – Catalina Sky Survey MPS 236242
2008 02 03.19971 08 56 09.74 +24 04 28.4 20.0 V 703 – Catalina Sky Survey MPS 236242
2008 02 03.20604 08 56 09.27 +24 04 32.8 19.4 V 703 – Catalina Sky Survey MPS 236242
2008 02 03.21236 08 56 08.95 +24 04 35.1 19.1 V 703 – Catalina Sky Survey MPS 236242
2008 02 10.28191 08 48 30.96 +24 53 08.0 20.1 V 703 – Catalina Sky Survey MPS 237544
2008 02 10.28863 08 48 30.49 +24 53 10.8 20.4 V 703 – Catalina Sky Survey MPS 237544
2008 02 10.29532 08 48 30.16 +24 53 12.3 19.8 V 703 – Catalina Sky Survey MPS 237544
2008 02 10.30201 08 48 29.62 +24 53 14.4 20.3 V 703 – Catalina Sky Survey MPS 237544
2008 02 10.33229 08 48 27.68 +24 53 26.4 19.9 V G96 – Mt. Lemmon Survey MPS 237544
2008 02 10.34388 08 48 26.92 +24 53 30.8 19.9 V G96 – Mt. Lemmon Survey MPS 237544
2008 02 10.35543 08 48 26.17 +24 53 34.9 20.0 V G96 – Mt. Lemmon Survey MPS 237544
2008 02 10.36698 08 48 25.41 +24 53 39.3 19.9 V G96 – Mt. Lemmon Survey MPS 237544
2008 02 11.22628 08 47 31.56 +24 59 01.2 20.0 V G96 – Mt. Lemmon Survey MPS 237544
2008 02 11.23074 08 47 31.27 +24 59 03.1 19.9 V G96 – Mt. Lemmon Survey MPS 237544
2008 02 11.23516 08 47 30.98 +24 59 04.5 19.9 V G96 – Mt. Lemmon Survey MPS 237544
2008 02 11.23960 08 47 30.69 +24 59 06.3 19.9 V G96 – Mt. Lemmon Survey MPS 237544
2008 03 03.28052 08 30 12.06 +26 26 32.8 20.2 V G96 – Mt. Lemmon Survey MPS 240732
2008 03 03.28376 08 30 11.95 +26 26 33.3 20.2 V G96 – Mt. Lemmon Survey MPS 240732
2008 03 03.28708 08 30 11.80 +26 26 33.5 20.0 V G96 – Mt. Lemmon Survey MPS 240732
2008 03 03.29028 08 30 11.70 +26 26 33.7 20.4 V G96 – Mt. Lemmon Survey MPS 240732
2009 08 17.27817 21 14 01.78 -24 15 58.0 20.1 V 703 – Catalina Sky Survey MPS 292513
2009 08 17.28517 21 14 01.50 -24 16 01.7 20.5 V 703 – Catalina Sky Survey MPS 292513
2009 08 17.29213 21 14 01.03 -24 16 05.4 19.3 V 703 – Catalina Sky Survey MPS 292513
2009 08 17.29919 21 14 00.56 -24 16 08.5 20.1 V 703 – Catalina Sky Survey MPS 292513
2010 11 08.34453 05 10 47.38 +17 20 28.1 20.7 V 691 – Steward Observatory, Kitt Peak-Spacewatch MPS 357183
2010 11 08.34701 05 10 47.20 +17 20 27.8 21.0 V 691 – Steward Observatory, Kitt Peak-Spacewatch MPS 357183
2010 11 08.36224 05 10 46.55 +17 20 28.1 20.6 V 691 – Steward Observatory, Kitt Peak-Spacewatch MPS 357183
2010 11 08.36471 05 10 46.43 +17 20 27.8 20.8 V 691 – Steward Observatory, Kitt Peak-Spacewatch MPS 357183
2010 11 08.37991 05 10 45.78 +17 20 27.5 21.0 V 691 – Steward Observatory, Kitt Peak-Spacewatch MPS 357183
2010 11 08.38238 05 10 45.67 +17 20 27.4 20.9 V 691 – Steward Observatory, Kitt Peak-Spacewatch MPS 357183
2010 12 02.35599 04 47 37.71 +17 19 21.5 20.3 V G96 – Mt. Lemmon Survey MPS 362353
2010 12 02.36296 04 47 37.24 +17 19 21.3 19.9 V G96 – Mt. Lemmon Survey MPS 362353
2010 12 02.36981 04 47 36.67 +17 19 21.9 19.5 V G96 – Mt. Lemmon Survey MPS 362353
2010 12 02.37667 04 47 36.31 +17 19 21.6 19.6 V G96 – Mt. Lemmon Survey MPS 362353
2011 01 08.20334 04 13 33.20 +17 56 03.9 20.0 V G96 – Mt. Lemmon Survey MPS 366639
2011 01 08.20740 04 13 33.09 +17 56 04.7 20.2 V G96 – Mt. Lemmon Survey MPS 366639
2011 01 08.21032 04 13 32.98 +17 56 05.0 20.5 V G96 – Mt. Lemmon Survey MPS 366639
2011 01 08.21440 04 13 32.84 +17 56 05.0 20.0 V G96 – Mt. Lemmon Survey MPS 366639
2011 01 08.21736 04 13 32.73 +17 56 05.7 20.3 V G96 – Mt. Lemmon Survey MPS 366639
2011 01 08.22142 04 13 32.62 +17 56 06.3 20.2 V G96 – Mt. Lemmon Survey MPS 366639
2011 01 08.22439 04 13 32.55 +17 56 06.7 20.2 V G96 – Mt. Lemmon Survey MPS 366639
2012 03 27.42371 15 17 43.46 -06 48 27.4 20.2 V 691 – Steward Observatory, Kitt Peak-Spacewatch MPS 419947
2012 03 27.44146 15 17 43.39 -06 48 24.3 20.2 V 691 – Steward Observatory, Kitt Peak-Spacewatch MPS 419947
2012 03 27.45919 15 17 43.30 -06 48 21.1 20.3 V 691 – Steward Observatory, Kitt Peak-Spacewatch MPS 419947
2012 03 31.41118 15 17 17.45 -06 36 14.5 19.9 V 691 – Steward Observatory, Kitt Peak-Spacewatch MPS 419947
2012 03 31.42893 15 17 17.21 -06 36 11.1 20.0 V 691 – Steward Observatory, Kitt Peak-Spacewatch MPS 419947
2012 03 31.44666 15 17 16.97 -06 36 07.6 19.8 V 691 – Steward Observatory, Kitt Peak-Spacewatch MPS 419947
2012 04 21.23278 15 06 29.31 -05 27 23.5 19.4 V 691 – Steward Observatory, Kitt Peak-Spacewatch MPS 422637
